Regional Weather Roundup
Issued by NWS

Home | Current Version | Previous Version | Text Only | Print | Product List | Glossary Off
Versions: 1 2 3 4 5 6 7 8 9 10 11 12 13 14 15 16 17 18 19 20 21 22 23 24 25 26 27 28 29 30 31 32 33 34 35 36 37 38 39 40 41 42 43 44 45 46 47 48 49 50

062
ASUS43 KBIS 300410
RWRND

NORTH DAKOTA REGIONAL WEATHER ROUNDUP
NATIONAL WEATHER SERVICE BISMARCK ND
1100 PM CDT SUN MAY 29 2016

NOTE: "FAIR" INDICATES FEW OR NO CLOUDS BELOW 12,000 FEET WITH NO
SIGNIFICANT WEATHER AND/OR OBSTRUCTIONS TO VISIBILITY.


NDZ001>003-009>011-017-300500-
NORTHWEST NORTH DAKOTA

CITY           SKY/WX    TMP DP  RH WIND       PRES   REMARKS
WILLISTON      CLEAR     55  43  63 CALM      29.93R
MINOT          CLEAR     66  43  43 CALM      29.92R
MINOT AFB      CLEAR     58  46  62 S6        29.91R
$$

NDZ018>021-031>035-040>046-300500-
SOUTHWEST NORTH DAKOTA

CITY           SKY/WX    TMP DP  RH WIND       PRES   REMARKS
BISMARCK       CLEAR     62  50  64 CALM      29.95R
DICKINSON      PTCLDY    55  43  63 SE8       29.94S
GARRISON         N/A     62  45  53 CALM      29.94R
HETTINGER ARPT CLEAR     57  49  74 S7        29.99R
$$

NDZ004>008-012>016-024-026-027-054-300500-
NORTHEAST NORTH DAKOTA

CITY           SKY/WX    TMP DP  RH WIND       PRES   REMARKS
GRAND FORKS    CLEAR     58  50  75 SW6       29.91S
GRND FRKS AFB  CLEAR     57  50  77 W3        29.92S
DEVILS LAKE    CLEAR     60  49  66 SW3       29.94S
$$

NDZ022-023-025-028>030-036>039-047>053-300500-
SOUTHEAST NORTH DAKOTA

CITY           SKY/WX    TMP DP  RH WIND       PRES   REMARKS
FARGO          CLEAR     61  50  67 CALM      29.93R
JAMESTOWN      CLEAR     61  46  57 CALM      29.94S
$$





USA.gov is the U.S. government's official web portal to all federal, state and local government web resources and services.